📊 Raw Sensor Data

Showing records 36401 to 36425 of 84,895 total

ID Distance (ft) Battery V Battery A Int Temp (°F) Int Humid (%) Ext Temp (°F) Solar V RSSI SNR Time Stamp
48507 15.4 3.93 0 72 44 79 5.10 -69 8 08/07/2025 08:15 AM
48506 15.4 3.92 0 71 43 77 5.10 -70 7 08/07/2025 08:00 AM
48505 15.4 4.07 26 69 42 76 4.50 -69 8 08/07/2025 07:45 AM
48504 15.3 3.94 22 67 42 74 4.50 -69 8 08/07/2025 07:30 AM
48503 15.3 3.96 9 65 43 71 4.60 -69 7 08/07/2025 07:15 AM
48502 15.3 3.85 0 63 43 68 4.50 -69 8 08/07/2025 07:00 AM
48501 15.2 3.84 0 61 43 66 4.50 -69 8 08/07/2025 06:45 AM
48500 15.2 3.83 -6 60 43 63 4.50 -70 7 08/07/2025 06:30 AM
48499 15.1 3.82 -10 59 44 61 4.10 -69 8 08/07/2025 06:15 AM
48498 15.1 3.83 -5 59 44 60 1.00 -69 8 08/07/2025 06:00 AM
48497 15.1 3.83 -5 59 44 61 0.00 -70 8 08/07/2025 05:45 AM
48496 15.1 3.83 -5 58 44 60 0.00 -68 8 08/07/2025 05:30 AM
48495 15.1 3.83 -5 59 44 60 0.00 -69 8 08/07/2025 05:15 AM
48494 15.1 3.92 -5 59 44 60 0.00 -69 8 08/07/2025 05:00 AM
48493 15.1 3.92 -5 59 44 61 0.00 -69 7 08/07/2025 04:45 AM
48492 15.1 3.84 -5 58 45 60 0.00 -68 8 08/07/2025 04:30 AM
48491 15.1 3.83 -5 58 44 59 0.00 -69 8 08/07/2025 04:15 AM
48490 15.1 3.83 -5 58 45 60 0.10 -68 8 08/07/2025 04:00 AM
48489 15.1 3.83 -5 59 45 60 0.00 -68 7 08/07/2025 03:45 AM
48488 15.1 3.83 -5 59 45 61 0.00 -68 8 08/07/2025 03:30 AM
48487 15.1 3.84 -5 59 45 61 0.00 -68 7 08/07/2025 03:15 AM
48486 15.1 3.93 -5 59 45 61 0.00 -69 8 08/07/2025 03:00 AM
48485 15.1 3.93 -5 59 45 61 0.00 -68 7 08/07/2025 02:45 AM
48484 15.1 3.84 -5 60 45 61 0.00 -68 8 08/07/2025 02:30 AM
48483 15.1 3.93 -5 60 45 61 0.00 -68 8 08/07/2025 02:15 AM